GFSFLT1_925_thetae_021.txt.gz
Theta_e
298 296 295 295 294 293 292 291 291 291 292 292 292 292 292 293 293 293 293 293 294 295 295 295 295 295 295 295 294 294 294 294
297 294 292 292 292 291 291 290 289 289 290 290 290 290 289 288 290 290 291 291 292 292 292 293 293 294 294 293 294 293 293 293
295 293 291 290 290 289 289 289 288 287 288 288 288 287 287 287 286 286 287 290 291 290 290 291 291 292 292 292 292 292 292 292
292 293 291 289 289 288 287 287 287 286 287 287 287 286 284 283 284 285 285 285 286 290 290 290 290 290 291 291 291 291 291 291
291 291 291 289 288 288 287 286 286 285 285 286 285 285 284 283 283 283 283 284 284 285 285 288 289 289 289 289 290 290 290 290
291 291 290 290 288 288 287 287 286 285 284 284 284 283 282 282 282 282 283 283 283 283 284 285 287 288 288 288 288 288 288 289
290 290 290 290 288 287 287 287 285 284 284 283 282 282 282 281 280 281 282 282 282 283 283 284 285 286 287 287 287 287 287 287
290 290 289 289 289 288 287 286 285 284 283 283 282 282 281 280 280 280 280 281 281 282 283 283 284 285 286 287 287 287 287 287
291 290 289 289 288 287 286 285 284 284 283 283 282 281 281 279 278 278 279 279 279 280 281 282 283 284 285 286 287 287 287 287
290 290 289 288 287 285 284 283 283 283 282 282 281 281 280 278 277 277 277 277 278 278 279 280 281 282 284 285 286 287 287 287
290 289 288 286 284 283 283 282 282 281 280 280 280 279 278 277 277 276 276 276 276 276 277 278 279 280 282 283 285 286 286 287
289 287 285 284 282 280 280 279 279 278 278 277 277 277 276 276 275 275 274 274 274 274 275 276 277 279 281 282 284 285 286 286
285 283 282 280 278 277 277 276 275 274 273 273 273 273 273 272 272 272 272 272 272 273 274 275 276 278 280 282 283 284 285 286
280 278 277 276 275 274 273 272 270 269 268 268 268 268 268 269 269 270 270 271 271 272 273 274 275 277 279 281 282 283 284 285
276 275 274 273 271 270 269 268 266 265 265 265 265 265 265 266 266 267 268 268 269 270 271 272 274 275 278 281 282 282 282 282
273 272 271 270 268 267 266 265 264 264 264 264 264 264 264 264 265 265 265 266 267 268 269 270 271 272 274 276 280 281 281 281
270 269 268 267 266 265 264 264 263 263 263 264 264 264 264 264 264 265 266 267 267 268 269 270 271 272 274 275 277 278 280 283
267 266 265 265 264 264 263 263 263 262 262 263 263 263 264 264 264 265 265 265 266 267 268 269 270 272 273 275 276 278 280 283
264 264 263 263 263 264 263 263 262 262 262 263 263 264 264 264 265 265 265 265 265 266 267 268 269 271 272 274 276 279 280 284
263 263 263 264 263 263 263 262 262 262 262 263 264 265 265 265 265 265 266 266 266 267 267 268 269 271 273 275 276 280 282 283

GFSFLT1_925_thetae_024.txt.gz
Theta_e
295 294 293 292 292 291 290 288 288 289 289 288 287 287 286 286 286 286 287 290 292 292 292 293 294 295 295 296 296 296 296 296
295 292 291 290 290 289 289 288 286 286 287 287 286 285 284 284 284 284 285 285 286 289 291 291 291 292 293 294 294 295 295 295
293 292 290 289 289 288 287 287 286 285 286 286 285 285 285 284 283 284 284 284 284 284 285 287 290 290 290 291 292 293 293 293
291 291 290 289 288 288 287 287 286 286 285 285 284 284 284 283 283 283 283 284 284 284 284 284 284 286 289 289 290 291 291 292
290 290 290 290 289 288 287 287 287 286 285 285 284 283 283 282 282 282 282 282 283 283 283 283 283 284 284 285 288 289 289 290
289 289 290 290 290 289 288 287 287 286 285 284 284 284 283 283 282 282 281 281 281 281 282 282 282 283 284 285 286 287 288 288
289 289 289 289 289 289 288 287 287 286 285 285 284 284 283 282 282 281 281 280 280 280 280 280 281 282 284 285 286 286 287 287
289 289 289 289 289 289 288 287 286 286 285 284 283 283 282 282 281 281 279 279 279 279 279 279 280 281 283 284 285 285 286 286
289 289 290 289 288 287 286 285 284 284 283 283 283 282 282 281 281 280 279 278 278 278 278 278 278 280 281 282 283 284 285 285
289 289 289 288 286 284 283 282 282 282 281 281 280 280 279 279 279 279 278 277 277 276 276 276 277 277 278 280 281 282 283 284
289 288 287 284 283 281 280 280 279 279 278 277 277 276 276 276 276 276 276 276 275 275 275 274 274 275 276 277 278 280 282 283
286 285 283 281 279 278 277 276 276 275 273 272 271 271 271 271 271 271 271 272 272 272 272 272 272 272 273 275 277 278 280 281
283 281 279 277 275 274 274 273 271 270 269 268 267 266 266 267 267 267 267 268 268 269 269 270 271 271 272 274 275 277 279 281
278 277 276 274 273 272 271 269 268 267 266 265 264 264 264 264 264 265 265 265 266 267 267 268 268 269 270 272 273 275 277 279
275 273 272 272 270 269 268 267 266 265 264 264 264 263 264 264 264 264 264 264 265 265 265 265 266 266 267 268 269 270 274 278
272 271 270 269 268 267 266 265 264 263 263 263 263 263 263 263 264 264 265 265 266 267 268 268 269 269 269 270 271 271 272 274
269 269 268 267 266 266 265 264 263 263 263 263 262 262 262 263 263 264 265 266 267 268 269 269 270 270 271 271 272 273 273 275
268 266 266 265 265 265 265 264 263 263 263 262 262 262 262 263 263 264 264 265 266 267 268 269 270 270 271 271 272 273 274 275
265 265 265 264 265 265 264 263 263 262 262 262 262 262 262 263 264 264 265 265 265 266 267 269 270 271 271 272 273 273 273 274
263 264 264 263 264 264 263 263 262 262 262 262 262 263 263 264 265 265 266 266 266 267 268 269 269 271 271 273 273 274 274 274

GFSFLT1_925_thetae_030.txt.gz
Theta_e
292 291 290 289 288 288 287 286 286 286 285 285 285 285 285 285 285 285 284 285 284 284 284 284 284 284 285 285 285 287 290 291
290 290 290 289 288 287 287 287 287 286 286 286 286 286 286 285 285 285 285 284 284 284 283 284 284 284 284 284 284 284 284 285
289 290 289 288 288 287 287 287 287 286 286 286 286 285 285 285 285 285 284 284 283 283 283 283 283 283 283 283 283 284 284 284
289 288 288 288 288 287 287 287 287 286 286 286 286 285 285 284 284 283 283 282 282 282 282 282 282 282 282 282 281 281 282 283
288 289 289 288 288 287 287 287 287 287 287 287 286 285 284 283 282 282 281 281 281 280 280 280 280 280 280 280 280 281 282 282
286 287 289 288 288 288 288 288 287 287 287 286 285 284 283 282 281 280 280 279 279 279 279 278 278 278 278 279 280 280 281 281
287 287 288 288 289 288 288 288 287 287 286 285 285 284 282 280 279 279 278 277 277 277 277 277 277 278 278 279 279 279 279 279
287 288 288 288 288 288 288 287 286 285 284 284 282 279 278 278 277 275 274 274 274 274 274 275 275 276 277 278 278 278 278 278
287 288 288 288 287 287 286 285 284 282 281 279 278 276 275 274 273 272 271 271 271 271 271 271 272 273 273 274 274 275 275 276
288 288 287 287 286 284 283 282 281 278 276 275 274 273 272 271 270 269 268 268 268 268 268 268 268 268 270 271 271 271 272 272
288 287 286 284 283 282 280 278 276 275 273 272 271 270 269 268 267 267 266 266 266 266 266 265 265 266 268 269 270 270 271 271
287 286 284 281 280 278 275 274 273 271 271 271 270 269 268 267 266 265 264 264 264 264 264 264 264 265 267 269 270 270 270 270
284 282 280 279 278 275 274 272 271 270 269 269 268 268 267 265 265 264 263 263 263 263 264 264 264 265 266 268 269 270 271 270
282 279 277 276 274 272 271 270 269 268 268 268 267 266 265 264 264 263 263 263 263 263 264 264 265 265 266 268 269 270 270 270
278 276 274 273 271 270 269 268 268 267 267 267 266 265 265 264 264 262 262 262 263 263 264 265 267 268 269 269 269 270 270 271
276 274 272 270 270 269 268 267 267 266 266 266 264 264 264 263 263 263 264 264 266 268 268 269 269 269 271 272 273 273 274 275
273 272 270 269 269 268 267 266 265 265 265 264 263 263 263 262 262 264 265 266 267 269 269 269 270 271 272 273 273 274 274 276
271 270 268 267 268 267 266 265 264 264 264 263 263 262 262 262 261 262 264 264 265 267 268 268 270 270 270 271 272 272 272 272
269 268 267 266 267 266 265 264 264 264 263 263 262 262 262 261 261 261 262 262 263 264 266 266 267 268 270 269 268 265 266 267
266 266 265 265 267 265 264 264 263 263 263 263 262 262 261 261 261 261 262 262 262 263 263 264 265 267 265 265 263 264 264 265

GFSFLT1_925_thetae_033.txt.gz
Theta_e
291 291 289 288 287 286 286 286 286 286 286 286 286 285 285 285 285 285 285 285 284 284 284 284 284 284 284 284 284 283 284 284
290 290 289 288 287 287 286 286 286 286 286 286 286 286 286 285 285 285 284 284 283 283 283 283 283 282 282 282 282 282 282 283
290 289 289 288 287 287 287 287 287 287 287 287 287 286 286 285 285 284 284 283 283 282 282 282 281 281 280 280 280 280 280 281
288 288 288 288 287 287 287 287 287 287 287 287 286 286 285 285 284 283 282 282 281 281 280 280 279 279 278 278 278 279 279 280
287 287 288 288 288 287 287 287 287 287 286 286 285 284 284 284 283 281 281 280 279 278 277 277 277 277 277 278 278 278 279 279
288 288 288 288 288 287 287 287 287 286 286 285 285 284 284 283 282 280 279 278 276 276 276 275 275 276 277 278 278 278 278 278
287 287 288 289 289 288 287 287 286 286 285 284 284 284 283 281 280 278 277 276 275 274 273 273 273 274 275 276 276 277 277 278
287 288 288 289 289 288 287 286 286 285 285 285 284 283 280 279 277 276 275 274 273 271 270 270 269 271 272 273 273 273 273 274
287 288 289 289 288 287 286 286 285 285 284 283 281 279 278 277 275 274 273 271 270 269 268 268 268 269 269 270 271 271 271 271
289 289 288 288 287 286 285 285 284 283 281 279 278 276 275 274 273 271 270 269 269 267 266 266 265 266 268 269 269 269 270 270
289 288 286 286 286 285 284 282 281 279 278 276 275 274 273 271 270 270 268 267 266 265 265 265 264 265 267 269 269 269 269 270
287 287 287 285 284 282 281 280 279 277 275 274 273 272 271 270 269 268 267 265 265 264 264 264 265 266 266 268 269 270 270 270
287 286 285 284 282 280 279 277 276 274 272 272 272 271 270 268 268 267 266 264 263 263 263 264 265 265 266 268 270 271 271 271
286 284 283 281 279 278 276 274 272 271 271 271 270 269 269 268 268 266 264 263 262 263 263 264 265 266 267 269 270 271 272 272
284 281 280 278 277 275 273 272 270 270 269 269 268 268 267 267 266 264 264 263 262 263 264 266 267 269 269 269 270 271 272 273
281 279 278 276 274 272 271 270 269 268 268 267 267 266 266 266 266 264 264 264 266 268 269 269 269 269 271 272 273 273 274 274
279 278 276 274 272 270 269 268 268 267 267 266 265 265 264 264 264 267 265 267 268 269 269 269 269 270 271 271 272 273 272 270
276 275 273 271 270 269 268 267 267 266 265 265 264 264 263 263 262 261 269 266 265 266 267 268 269 269 270 270 270 267 267 264
273 271 270 269 269 268 267 267 266 265 265 264 264 263 263 262 262 261 261 261 265 265 264 266 267 269 268 268 265 263 262 262
269 268 267 267 268 267 267 266 266 265 265 264 264 263 262 261 261 261 261 261 261 263 264 265 264 266 265 264 262 261 261 262